Naples, FL

5:56 PM EST on January 22, 2018 (GMT -0500)
Naples Municipal

Weather History for KAPF - November, 2011

Change the Weather History Date:

Saturday, November 5, 2011

  Actual Average Record
Temperature  
Mean Temperature 67 °F 74 °F  
Max Temperature 78 °F 83 °F 90 °F (2015)
Min Temperature 55 °F 65 °F 37 °F (1955)
Degree Days  
Heating Degree Days 0 0  
Month to date heating degree days 0 0  
Since 1 July heating degree days 0 1  
Cooling Degree Days 2 9  
Month to date cooling degree days 35 49  
Year to date cooling degree days 3921 3644  
Growing Degree Days 15 (Base 50)    
Moisture  
Dew Point 56 °F    
Average Humidity 72    
Maximum Humidity 86    
Minimum Humidity 57    
Precipitation  
Precipitation 0.00 in 0.11 in 4.82 in (1998)
Month to date precipitation 0.00 0.54  
Year to date precipitation 36.03 48.94  
Snow  
Snow 0.00 in - - ()
Month to date snowfall 0.0  
Since 1 July snowfall 0.0  
Since 1 September snowfall 0.0  
Snow Depth 0.00 in    
Sea Level Pressure  
Sea Level Pressure 29.99 in    
Wind  
Wind Speed 8 mph (NNE)    
Max Wind Speed 17 mph    
Max Gust Speed 25 mph    
Visibility 10 miles    
Events      
T = Trace of Precipitation, MM = Missing Value Source: NWS Daily Summary

Daily Weather History Graph

Daily Weather History Graph

Search for Another Location

Airport or City:

Trip Planner

Search our weather history database for the weather conditions in past years. The results will help you decide how hot, cold, wet, or windy it might be!

Date:

Astronomy

Nov. 05, 2011 Rise Set
Actual Time 7:38 AM EDT 6:42 PM EDT
Civil Twilight 7:14 AM EDT 7:06 PM EDT
Nautical Twilight 6:46 AM EDT 7:34 PM EDT
Astronomical Twilight 6:19 AM EDT 8:01 PM EDT
Moon 3:38 PM EDT (11/5) 3:12 AM EDT (11/5)
Length of Visible Light 11h 52m
Length of Day
11h 04m
Waxing Gibbous, 78% of the Moon is Illuminated
Nov 5
Waxing Gibbous
Nov 10
Full
Nov 18
Last Quarter
Nov 25
New
Dec 2
First Quarter

Hourly Weather History & Observations

Time (EDT) Temp. Dew Point Humidity Pressure Visibility Wind Dir Wind Speed Gust Speed Precip Events Conditions
12:53 AM 57.9 °F 52.0 °F 81% 29.98 in 10.0 mi North 6.9 mph - N/A   Clear
1:53 AM 57.0 °F 51.1 °F 81% 29.98 in 10.0 mi NNE 6.9 mph - N/A   Clear
2:53 AM 57.0 °F 51.1 °F 81% 29.97 in 10.0 mi North 6.9 mph - N/A   Clear
3:53 AM 55.9 °F 51.1 °F 84% 29.96 in 10.0 mi North 3.5 mph - N/A   Clear
4:53 AM 55.9 °F 50.0 °F 80% 29.96 in 10.0 mi North 4.6 mph - N/A   Clear
5:53 AM 55.9 °F 50.0 °F 80% 29.96 in 10.0 mi North 4.6 mph - N/A   Clear
6:53 AM 55.0 °F 48.9 °F 80% 29.98 in 10.0 mi NNW 5.8 mph - N/A   Clear
7:53 AM 55.4 °F 48.2 °F 77% 30.00 in 10.0 mi North 8.1 mph - N/A   Clear
8:53 AM 59.0 °F 50.0 °F 72% 30.01 in 10.0 mi North 5.8 mph - N/A   Clear
9:53 AM 63.0 °F 51.1 °F 65% 30.01 in 10.0 mi North 9.2 mph - N/A   Clear
10:53 AM 69.1 °F 54.0 °F 58% 30.02 in 10.0 mi North 6.9 mph - N/A   Clear
11:53 AM 70.0 °F 55.0 °F 59% 30.02 in 10.0 mi NNE 10.4 mph - N/A   Clear
12:53 PM 73.9 °F 57.0 °F 55% 29.99 in 10.0 mi NNE 8.1 mph - N/A   Clear
1:53 PM 73.9 °F 57.9 °F 57% 29.97 in 10.0 mi NNE 8.1 mph - N/A   Scattered Clouds
2:53 PM 75.2 °F 59.0 °F 57% 29.96 in 10.0 mi NE 13.8 mph - N/A   Mostly Cloudy
3:53 PM 75.9 °F 59.0 °F 56% 29.96 in 10.0 mi NE 12.7 mph - N/A   Mostly Cloudy
4:53 PM 75.2 °F 60.8 °F 61% 29.96 in 10.0 mi NNE 8.1 mph - N/A   Mostly Cloudy
5:53 PM 75.0 °F 61.0 °F 62% 29.95 in 10.0 mi NE 10.4 mph - N/A   Mostly Cloudy
6:53 PM 72.0 °F 61.0 °F 68% 29.97 in 10.0 mi NE 12.7 mph - N/A   Partly Cloudy
7:53 PM 71.1 °F 61.0 °F 70% 29.99 in 10.0 mi NNE 11.5 mph - N/A   Clear
8:53 PM 69.1 °F 61.0 °F 75% 30.01 in 10.0 mi NE 8.1 mph - N/A   Clear
9:53 PM 68.0 °F 61.0 °F 78% 30.03 in 10.0 mi NE 12.7 mph 19.6 mph N/A   Clear
10:53 PM 66.2 °F 60.8 °F 83% 30.05 in 10.0 mi NNE 8.1 mph - N/A   Scattered Clouds
11:53 PM 66.0 °F 61.0 °F 84% 30.06 in 10.0 mi NNE 8.1 mph - N/A   Clear